Location: Unspecified
(49.9820°N, 20.4363°E)
Time: 22:54:03
(UTC+02:00)

Transit 2A Rocket - Visible Passes

Search period start: 15 May 2026 00:00
Search period end: 25 May 2026 00:00
Orbit: 587 x 895 km, 66.7° (Epoch: 15 May)

Date Brightness Start Highest point End Pass type
(mag) Time Alt. Az. Time Alt. Az. Time Alt. Az.
15 May 8.0 01:32:08 10° NNW 01:34:47 14° NNE 01:37:18 10° NE visible
15 May 6.1 03:13:59 10° NNW 03:18:27 41° NE 03:22:37 10° ESE visible
15 May 7.1 21:15:05 10° WSW 21:19:58 32° NW 21:24:32 10° NNE visible
15 May 8.1 23:01:23 10° NW 23:03:51 13° NNW 23:06:16 10° NNE visible
16 May 8.1 00:46:29 10° NNW 00:48:25 12° N 00:50:17 10° NE visible
16 May 6.9 02:28:23 10° NNW 02:32:26 27° NE 02:36:15 10° E visible
16 May 4.6 04:10:35 10° NW 04:15:08 58° WSW 04:19:23 10° SSE visible
16 May 7.9 22:14:15 10° WNW 22:17:32 16° NNW 22:20:40 10° NNE visible
17 May 8.2 00:00:33 10° NNW 00:02:00 11° N 00:03:25 10° NNE visible
17 May 7.5 01:42:49 10° NNW 01:46:18 20° NNE 01:49:36 10° ENE visible
17 May 4.7 03:24:46 10° NW 03:29:27 79° NE 03:33:47 10° SE visible
17 May 7.8 21:27:16 10° W 21:31:19 21° NNW 21:35:07 10° NNE visible
17 May 8.2 23:14:00 10° NNW 23:15:34 11° N 23:17:05 10° NNE visible
18 May 7.7 00:57:15 10° NNW 01:00:03 15° NNE 01:02:43 10° ENE visible
18 May 5.7 02:39:05 10° NNW 02:43:37 47° NE 02:47:50 10° ESE visible
18 May 8.0 22:26:58 10° NW 22:29:09 13° NNW 22:31:17 10° NNE visible
19 May 7.9 00:11:39 10° NNW 00:13:42 12° NNE 00:15:41 10° NE visible
19 May 6.6 01:53:28 10° NNW 01:57:38 30° NE 02:01:32 10° E visible
19 May 4.7 03:35:46 10° NW 03:40:11 49° WSW 03:44:20 10° SSE visible
19 May 7.9 21:39:49 10° WNW 21:42:48 15° NNW 21:45:41 10° NNE visible
19 May 8.0 23:25:51 10° NNW 23:27:18 11° N 23:28:43 10° NNE visible
20 May 7.2 01:07:55 10° NNW 01:11:32 21° NNE 01:14:58 10° E visible
20 May 4.5 02:49:54 10° NW 02:54:33 88° SW 02:58:52 10° SE visible
20 May 8.0 22:39:31 10° NNW 22:40:52 11° N 22:42:12 10° NNE visible
21 May 7.5 00:22:22 10° NNW 00:25:18 16° NNE 00:28:08 10° ENE visible
21 May 5.3 02:04:11 10° NNW 02:08:45 54° NE 02:13:01 10° SE visible
21 May 5.7 03:47:10 10° WNW 03:50:41 23° WSW 03:54:04 10° SSW visible
21 May 7.9 21:52:33 10° NW 21:54:27 12° NNW 21:56:19 10° NNE visible
21 May 7.7 23:36:48 10° NNW 23:38:59 13° NNE 23:41:07 10° NE visible
22 May 6.3 01:18:34 10° NNW 01:22:49 33° NE 01:26:48 10° ESE visible
22 May 4.9 03:00:57 10° NW 03:05:13 41° WSW 03:09:16 10° S visible
22 May 7.8 21:05:22 10° NW 21:08:05 14° NNW 21:10:42 10° NNE visible
22 May 7.8 22:51:06 10° N 22:52:36 11° N 22:54:04 10° NNE visible
23 May 6.9 00:32:59 10° NNW 00:36:45 23° NNE 00:40:18 10° E visible
23 May 4.4 02:15:03 10° NW 02:19:37 76° SW 02:23:39 12° SSE visible
23 May 6.6 04:00:57 10° WSW 04:00:58 10° WSW 04:00:59 10° WSW visible
23 May 7.9 22:04:58 10° NNW 22:06:10 11° N 22:07:21 10° NNE visible
23 May 7.3 23:47:27 10° NNW 23:50:33 17° NNE 23:53:31 10° ENE visible
24 May 5.0 01:29:18 10° NNW 01:33:52 62° NE 01:37:54 12° SE visible
24 May 6.0 03:12:31 10° WNW 03:15:41 19° WSW 03:17:29 15° SW visible
24 May 7.8 21:18:07 10° NNW 21:19:44 11° N 21:21:20 10° N visible
24 May 7.5 23:01:54 10° NNW 23:04:15 13° NNE 23:06:32 10° NE visible
